{"data":{"norad_id":62061,"epoch":"2026-09-21T06:56:24.580032Z","epoch_age_seconds":113512,"freshness":"FRESH","line1":"1 62061U 24217E   26264.28917338  .00120864  00000+0  98578-3 0  9992","line2":"2 62061  53.1575 187.1043 0001709 139.4638 220.6507 15.69764063105890","mean_motion":15.69764063,"eccentricity":0.0001709,"inclination_deg":53.1575,"raan_deg":187.1043,"arg_perigee_deg":139.4638,"mean_anomaly_deg":220.6507,"bstar":0.00098578,"rev_number":10589,"period_min":91.733530786021,"perigee_km":358.42057277198,"apogee_km":360.72352172433,"semimajor_km":6737.7090472481,"source":"CELESTRAK","updated_at":"2026-09-22T09:00:49.492253Z"}}